Weather History for Boerne Stage Field, TX

Change the Weather History Date:

Sunday, March 24, 2013

  Actual Average (KSAT) Record (KSAT)
Temperature  
Mean Temperature 52 °F 64 °F  
Max Temperature 68 °F 76 °F 94 °F (1916)
Min Temperature 35 °F 53 °F 28 °F (1952)
Degree Days  
Heating Degree Days 12 4  
Month to date heating degree days 132  
Since 1 July heating degree days 1433  
Cooling Degree Days 0 3  
Month to date cooling degree days 45  
Year to date cooling degree days 71  
Growing Degree Days 2 (Base 50)    
Moisture  
Dew Point 26 °F    
Average Humidity 42    
Maximum Humidity 88    
Minimum Humidity 16    
Precipitation  
Precipitation 0.00 in 0.08 in 1.32 in (1943)
Month to date precipitation 1.82  
Year to date precipitation 5.37  
Snow  
Snow 0.00 in - - ()
Month to date snowfall  
Since 1 July snowfall  
Snow Depth -    
Sea Level Pressure  
Sea Level Pressure 30.04 in    
Wind  
Wind Speed 11 mph (North)    
Max Wind Speed 26 mph    
Max Gust Speed 39 mph    
Visibility 10 miles    
Events      
T = Trace of Precipitation, MM = Missing Value Source: NWS Daily Summary

Daily Weather History Graph

Daily Weather History Graph

Search for Another Location

Airport:

Trip Planner

Search our weather history database for the weather conditions in past years. The results will help you decide how hot, cold, wet, or windy it might be!

Date:

Astronomy

Mar. 24, 2013 Rise Set
Actual Time 7:33 AM CDT 7:48 PM CDT
Civil Twilight 7:09 AM CDT 8:12 PM CDT
Nautical Twilight 6:41 AM CDT 8:40 PM CDT
Astronomical Twilight 6:13 AM CDT 9:08 PM CDT
Moon 5:27 PM CDT (3/24) 5:33 AM CDT (3/24)
Length of Visible Light 13h 03m
Length of Day
12h 15m
Waxing Gibbous, 92% of the Moon is Illuminated
Mar 24
Waxing Gibbous
Mar 27
Full
Apr 2
Last Quarter
Apr 10
New
Apr 18
First Quarter

Hourly Weather History & Observations

Time (CDT) Temp. Windchill Dew Point Humidity Pressure Visibility Wind Dir Wind Speed Gust Speed Precip Events Conditions
12:15 AM 59.0 °F - 53.6 °F 82% 29.74 in 10.0 mi Calm Calm - N/A   Clear
12:35 AM 59.0 °F - 53.6 °F 82% 29.74 in 7.0 mi Calm Calm - N/A   Clear
12:55 AM 57.2 °F - 53.6 °F 88% 29.74 in 10.0 mi Calm Calm - N/A   Clear
1:15 AM 55.4 °F - 51.8 °F 88% 29.76 in 10.0 mi WNW 5.8 mph - N/A   Clear
1:35 AM 64.4 °F - 55.4 °F 73% 29.78 in 10.0 mi WSW 10.4 mph - N/A   Clear
1:55 AM 68.0 °F - 46.4 °F 46% 29.80 in 10.0 mi NW 13.8 mph 20.7 mph N/A   Scattered Clouds
2:15 AM 66.2 °F - 37.4 °F 35% 29.80 in 7.0 mi NNW 9.2 mph 18.4 mph N/A   Mostly Cloudy
2:35 AM 66.2 °F - 32.0 °F 28% 29.81 in 5.0 mi NNW 16.1 mph 24.2 mph N/A   Overcast
2:55 AM 62.6 °F - 48.2 °F 59% 29.84 in 10.0 mi NNW 21.9 mph 33.4 mph N/A   Overcast
3:15 AM 60.8 °F - 50.0 °F 68% 29.87 in 10.0 mi North 20.7 mph 28.8 mph N/A   Overcast
3:35 AM 57.2 °F - 48.2 °F 72% 29.87 in 10.0 mi North 26.5 mph 39.1 mph N/A   Overcast
3:55 AM 55.4 °F - 46.4 °F 72% 29.91 in 10.0 mi North 13.8 mph 32.2 mph N/A   Overcast
4:15 AM 53.6 °F - 44.6 °F 72% 29.93 in 10.0 mi North 23.0 mph 29.9 mph N/A   Overcast
4:55 AM 51.8 °F - 41.0 °F 67% 29.93 in 10.0 mi North 17.3 mph 29.9 mph N/A   Scattered Clouds
5:15 AM 50.0 °F - 39.2 °F 66% 29.94 in 10.0 mi North 19.6 mph 29.9 mph N/A   Clear
5:35 AM 48.2 °F - 37.4 °F 66% 29.97 in 10.0 mi North 18.4 mph 31.1 mph N/A   Clear
5:55 AM 46.4 °F 39.8 °F 37.4 °F 71% 29.98 in 10.0 mi North 16.1 mph 25.3 mph N/A   Clear
6:15 AM 46.4 °F 39.2 °F 32.0 °F 57% 29.99 in 10.0 mi North 18.4 mph 29.9 mph N/A   Clear
6:35 AM 44.6 °F 36.6 °F 32.0 °F 61% 30.01 in 10.0 mi North 19.6 mph 32.2 mph N/A   Clear
6:55 AM 42.8 °F 34.0 °F 32.0 °F 66% 30.03 in 10.0 mi North 20.7 mph 28.8 mph N/A   Clear
7:15 AM 42.8 °F 34.8 °F 30.2 °F 61% 30.05 in 10.0 mi North 17.3 mph 33.4 mph N/A   Clear
7:35 AM 42.8 °F 36.2 °F 28.4 °F 57% 30.07 in 10.0 mi North 12.7 mph 20.7 mph N/A   Clear
7:55 AM 41.0 °F 33.5 °F 30.2 °F 65% 30.09 in 10.0 mi North 13.8 mph 23.0 mph N/A   Clear
8:15 AM 41.0 °F 34.3 °F 28.4 °F 61% 30.10 in 10.0 mi North 11.5 mph 18.4 mph N/A   Clear
8:35 AM 41.0 °F 31.9 °F 23.0 °F 49% 30.12 in 10.0 mi North 19.6 mph 25.3 mph N/A   Clear
8:55 AM 42.8 °F 34.8 °F 23.0 °F 46% 30.13 in 10.0 mi NNW 17.3 mph 25.3 mph N/A   Clear
9:15 AM 42.8 °F 34.0 °F 21.2 °F 42% 30.13 in 10.0 mi North 20.7 mph 29.9 mph N/A   Clear
9:35 AM 42.8 °F 33.5 °F 19.4 °F 39% 30.14 in 10.0 mi North 23.0 mph 28.8 mph N/A   Clear
9:55 AM 42.8 °F 34.3 °F 19.4 °F 39% 30.15 in 10.0 mi North 19.6 mph 29.9 mph N/A   Clear
10:15 AM 44.6 °F 37.8 °F 19.4 °F 37% 30.16 in 10.0 mi North 15.0 mph 21.9 mph N/A   Clear
10:35 AM 46.4 °F 39.2 °F 19.4 °F 34% 30.17 in 10.0 mi North 18.4 mph 24.2 mph N/A   Clear
10:55 AM 46.4 °F 40.1 °F 19.4 °F 34% 30.17 in 10.0 mi North 15.0 mph 24.2 mph N/A   Clear
11:15 AM 46.4 °F 39.2 °F 19.4 °F 34% 30.17 in 10.0 mi NNW 18.4 mph 25.3 mph N/A   Clear
11:35 AM 48.2 °F - 19.4 °F 32% 30.16 in 10.0 mi NNW 15.0 mph 24.2 mph N/A   Clear
11:55 AM 50.0 °F - 17.6 °F 28% 30.16 in 10.0 mi NNW 16.1 mph 24.2 mph N/A   Clear
12:15 PM 51.8 °F - 19.4 °F 28% 30.16 in 10.0 mi North 18.4 mph 25.3 mph N/A   Clear
12:35 PM 51.8 °F - 19.4 °F 28% 30.15 in 10.0 mi NNW 18.4 mph 24.2 mph N/A   Clear
12:55 PM 51.8 °F - 19.4 °F 28% 30.15 in 10.0 mi NNW 17.3 mph 20.7 mph N/A   Clear
1:15 PM 51.8 °F - 17.6 °F 26% 30.14 in 10.0 mi NNW 16.1 mph 27.6 mph N/A   Clear
1:35 PM 53.6 °F - 17.6 °F 24% 30.13 in 10.0 mi NNW 17.3 mph 25.3 mph N/A   Clear
1:55 PM 55.4 °F - 19.4 °F 25% 30.12 in 10.0 mi North 13.8 mph 24.2 mph N/A   Clear
2:15 PM 55.4 °F - 17.6 °F 23% 30.11 in 10.0 mi North 13.8 mph 24.2 mph N/A   Clear
2:35 PM 55.4 °F - 17.6 °F 23% 30.09 in 10.0 mi North 17.3 mph 26.5 mph N/A   Clear
2:55 PM 55.4 °F - 17.6 °F 23% 30.08 in 10.0 mi North 13.8 mph 24.2 mph N/A   Clear
3:15 PM 57.2 °F - 17.6 °F 21% 30.07 in 10.0 mi North 15.0 mph 19.6 mph N/A   Clear
3:35 PM 57.2 °F - 15.8 °F 20% 30.06 in 10.0 mi NNW 16.1 mph 21.9 mph N/A   Clear
3:55 PM 59.0 °F - 15.8 °F 19% 30.06 in 10.0 mi NNW 15.0 mph 24.2 mph N/A   Clear
4:15 PM 59.0 °F - 14.0 °F 17% 30.05 in 10.0 mi North 13.8 mph 21.9 mph N/A   Clear
4:35 PM 59.0 °F - 12.2 °F 16% 30.04 in 10.0 mi North 11.5 mph 20.7 mph N/A   Clear
4:55 PM 59.0 °F - 14.0 °F 17% 30.04 in 10.0 mi North 13.8 mph 21.9 mph N/A   Clear
5:15 PM 59.0 °F - 14.0 °F 17% 30.04 in 10.0 mi North 11.5 mph 23.0 mph N/A   Clear
5:35 PM 59.0 °F - 14.0 °F 17% 30.04 in 10.0 mi North 13.8 mph 20.7 mph N/A   Clear
5:55 PM 57.2 °F - 12.2 °F 17% 30.04 in 10.0 mi North 15.0 mph 20.7 mph N/A   Clear
6:15 PM 57.2 °F - 14.0 °F 18% 30.04 in 10.0 mi North 16.1 mph 21.9 mph N/A   Clear
6:35 PM 55.4 °F - 14.0 °F 20% 30.04 in 10.0 mi North 8.1 mph - N/A   Clear
6:55 PM 55.4 °F - 14.0 °F 20% 30.05 in 10.0 mi NNE 9.2 mph 17.3 mph N/A   Clear
7:15 PM 53.6 °F - 14.0 °F 21% 30.05 in 10.0 mi North 8.1 mph - N/A   Clear
7:35 PM 53.6 °F - 15.8 °F 22% 30.06 in 10.0 mi North 5.8 mph - N/A   Clear
7:55 PM 51.8 °F - 15.8 °F 24% 30.06 in 10.0 mi NNE 5.8 mph - N/A   Clear
8:15 PM 50.0 °F - 15.8 °F 26% 30.06 in 10.0 mi North 4.6 mph - N/A   Clear
8:55 PM 48.2 °F - 17.6 °F 30% 30.08 in 10.0 mi Calm Calm - N/A   Clear
9:15 PM 46.4 °F 44.3 °F 17.6 °F 32% 30.09 in 10.0 mi North 4.6 mph - N/A   Clear
9:35 PM 46.4 °F - 17.6 °F 32% 30.11 in 10.0 mi Calm Calm - N/A   Clear
9:55 PM 42.8 °F - 19.4 °F 39% 30.12 in 10.0 mi Calm Calm - N/A   Clear
10:15 PM 41.0 °F - 21.2 °F 45% 30.13 in 10.0 mi Calm Calm - N/A   Clear
10:35 PM 41.0 °F - 21.2 °F 45% 30.13 in 10.0 mi Calm Calm - N/A   Clear
10:55 PM 41.0 °F - 19.4 °F 42% 30.14 in 10.0 mi Calm Calm - N/A   Clear
11:15 PM 41.0 °F - 19.4 °F 42% 30.15 in 10.0 mi Calm Calm - N/A   Clear
11:35 PM 37.4 °F - 23.0 °F 56% 30.16 in 10.0 mi Calm Calm - N/A   Clear
11:55 PM 35.6 °F - 23.0 °F 60% 30.16 in 10.0 mi Calm Calm - N/A   Clear